Hourly Data Report for May 24, 2022

BAGOTVILLE A
QUEBEC
Current Station Operator: DND

48°20'00.000" N
71°00'00.000" W
159.10 m
7060400
71727
YBG

Download Data

Hourly Data (May 2022)
Hourly Data Report for May 24, 2022
TIME
LST
Temp Definition
°C
Dew Point Definition
°C
Rel Hum Definition
%
Precip. Amount Definition
mm

Wind Dir Definition
10's deg

Wind Spd Definition
km/h
Visibility Definition
km
Stn Press Definition
kPa
Hmdx Definition


Wind Chill Definition


Weather Definition


00:00 0.9 -0.9 87   12 5 40.2 100.87     LegendNANA
01:00 -0.6 -1.7 91   16 5 40.2 100.88   -2 LegendNANA
02:00 -1.1 -2.1 92   19 4 40.2 100.92   -2 LegendNANA
03:00 -0.8 -1.5 94   23 4 40.2 100.94   -2 LegendNANA
04:00 -1.4 -2.3 93   20 5 40.2 100.97   -3 LegendNANA
05:00 -0.4 -1.6 91   20 5 40.2 101.04   -2 LegendNANA
06:00 3.4 0.4 81     0 40.2 101.07     LegendNANA
07:00 6.5 0.7 66     0 40.2 101.10     LegendNANA
08:00 10.2 1.7 56   9 5 40.2 101.09     LegendNANA
09:00 12.8 0.7 44   5 4 40.2 101.03     LegendNANA
10:00 14.4 0.4 38   36 5 40.2 100.95     LegendNANA
11:00 16.2 -0.6 32   7 9 40.2 100.88     LegendNANA
12:00 17.4 -0.6 29   5 9 40.2 100.78     LegendNANA
13:00 18.0 -0.6 28   1 18 40.2 100.70     LegendNANA
14:00 18.9 0.2 28   4 15 40.2 100.61     LegendNANA
15:00 19.6 0.2 27   8 17 40.2 100.55     LegendNANA
16:00 19.4 -1.4 24   8 5 40.2 100.50     LegendNANA
17:00 18.9 1.1 30   9 13 40.2 100.49     LegendNANA
18:00 18.4 1.2 32   8 8 40.2 100.50     LegendNANA
19:00 18.1 -2.4 24   3 9 40.2 100.46     LegendNANA
20:00 12.4 1.1 46   18 9 40.2 100.49     LegendNANA
21:00 14.6 -0.5 35   20 5 40.2 100.54     LegendNANA
22:00 11.8 1.1 48   22 13 40.2 100.57     LegendNANA
23:00 12.4 -0.6 41   24 17 40.2 100.59     LegendNANA

Notes on Data Quality.

Legend

  • E = Estimated
  • M = Missing
  • NA = Not Available*
  • [empty] = Indicates an unobserved value
Date modified: